This is the latest recevied weather packets stored in our database for station/object K5OBH. If no packets are shown the sender has not sent any weather packets the latest 10 day(s).
| Time | Temp. | Humidity | Pressure | Rain* | Wind** | Luminosity | Snow |
|---|---|---|---|---|---|---|---|
| 1778081159 | 11.11° C | 73% | 1016.9 hPa | 0 mm | - | 192 W/m² | - |
| 1778080857 | 11.11° C | 73% | 1016.9 hPa | 0 mm | - | 247 W/m² | - |
| 1778080555 | 11.11° C | 73% | 1017 hPa | 0 mm | - | 265 W/m² | - |
| 1778080252 | 11.11° C | 73% | 1016.8 hPa | 0 mm | - | 238 W/m² | - |
| 1778079948 | 11.11° C | 73% | 1016.7 hPa | 0 mm | - | 214 W/m² | - |
| 1778079645 | 11.67° C | 73% | 1016.7 hPa | 0 mm | - | 216 W/m² | - |
| 1778079342 | 11.11° C | 74% | 1016.6 hPa | 0 mm | - | 355 W/m² | - |
| 1778079039 | 10.56° C | 75% | 1016.3 hPa | 0 mm | - | 259 W/m² | - |
| 1778078736 | 10.56° C | 75% | 1016.1 hPa | 0 mm | - | 261 W/m² | - |
| 1778078433 | 10.56° C | 76% | 1016.1 hPa | 0 mm | - | 239 W/m² | - |
| 1778078131 | 10.56° C | 77% | 1016.1 hPa | 0 mm | - | 190 W/m² | - |
| 1778077829 | 10.56° C | 77% | 1016 hPa | 0 mm | - | 197 W/m² | - |
| 1778077526 | 10° C | 77% | 1015.9 hPa | 0 mm | - | 172 W/m² | - |
| 1778077225 | 10° C | 77% | 1015.9 hPa | 0 mm | - | 157 W/m² | - |
| 1778076922 | 10° C | 78% | 1015.8 hPa | 0 mm | - | 186 W/m² | - |
| 1778076620 | 10° C | 78% | 1016 hPa | 0 mm | - | 154 W/m² | - |
| 1778076317 | 10° C | 78% | 1016.1 hPa | 0 mm | - | 128 W/m² | - |
| 1778076015 | 10° C | 79% | 1016 hPa | 0 mm | - | 152 W/m² | - |
| 1778075711 | 10° C | 79% | 1016.2 hPa | 0 mm | - | 99 W/m² | - |
| 1778075407 | 10° C | 80% | 1016 hPa | 0 mm | - | 127 W/m² | - |
| 1778075104 | 10° C | 81% | 1016 hPa | 0 mm | - | 98 W/m² | - |
| 1778074800 | 10° C | 80% | 1016.2 hPa | 0 mm | - | 98 W/m² | - |
| 1778074497 | 10° C | 80% | 1016.1 hPa | 0 mm | - | 111 W/m² | - |
| 1778074194 | 10° C | 80% | 1016.3 hPa | 0 mm | - | 95 W/m² | - |
| 1778073891 | 10° C | 79% | 1016.4 hPa | 0 mm | - | 79 W/m² | - |
* Rain latest hour (hover to see other rain measurements)
** Current wind speed in m/s (hover to see current wind gust speed)